Location: ????
(30.2663°N, 31.2484°E)
Time: 11:47:24
(UTC+00:00)

Cosmos 1452 Rocket - Pass Details

Date: 27 September 2022
Orbit: 767 x 774 km, 74.1° (Epoch: 27 November)

Event Time Altitude Azimuth Distance (km) Brightness Sun altitude
Rises 02:19:48 0° 181° (S) 3,221 6.6 -19.4°
Reaches altitude 10° 02:22:13 10° 176° (S) 2,299 5.9 -18.8°
Maximum altitude 02:27:14 50° 102° (ESE) 977 4.4 -17.8°
Drops below altitude 10° 02:32:18 10° 28° (NNE) 2,315 6.5 -16.7°
Sets 02:34:44 0° 23° (NNE) 3,247 7.2 -16.2°
